Other Public Products
Issued by NWS Grand Forks, ND

Home | Current Version | Previous Version | Text Only | Print | Product List | Glossary On
Versions: 1 2 3 4 5 6 7 8 9 10 11 12 13 14 15 16 17 18 19 20 21 22 23 24 25 26 27 28 29 30 31 32 33 34 35 36 37 38 39 40 41 42 43 44 45 46 47 48 49 50
000
FPUS83 KFGF 291131
OPUFGF
PRAIRIE TO PINES WEATHER ROUNDUP
NATIONAL WEATHER SERVICE EASTERN NORTH DAKOTA/GRAND FORKS ND
600 AM CDT SAT APR 29 2017

 **SATELLITE DATA USED TO AUGMENT SKY COVER AT AUTOMATED STATIONS**
 *****  WEATHER ACROSS EASTERN NORTH DAKOTA  *****

CITY           SKY/WX    TMP DP  RH WIND       PRES   REMARKS
GRAND FORKS    FAIR      29  25  85 W3        30.26R
GRAND FORKS AF FAIR      27  25  91 CALM      30.26R
GRAND CITY NWS NOT AVBL
BUXTON           N/A     33  24  71 N3          N/A
DEVILS LAKE    FAIR      30  28  92 CALM      30.25R
FARGO          FAIR      29  25  85 NW3       30.24S
WAHPETON ARPT  FAIR      28  27  93 CALM      30.25S
$$

 *****  WEATHER ACROSS CENTRAL AND WESTERN NORTH DAKOTA  *****

CITY           SKY/WX    TMP DP  RH WIND       PRES   REMARKS
JAMESTOWN      FAIR      27  26  96 CALM      30.23S
BISMARCK       FAIR      29  22  75 CALM      30.25R
MINOT          FAIR      41  22  46 SW10      30.20R
MINOT AFB      FAIR      37  24  59 SW6       30.19R
GARRISON         N/A     29  23  78 CALM      30.22R
WILLISTON      FAIR      31  24  75 CALM      30.19R
DICKINSON      FAIR      28  20  71 S10       30.21R WCI  19
HETTINGER      FAIR      25  20  81 CALM      30.24R
$$

 *****  OTHER OBSERVATIONS NORTHEAST NORTH DAKOTA  *****

CITY           SKY/WX    TMP DP  RH WIND       PRES   REMARKS
WALHALLA       NOT AVBL
LANGDON        FAIR      23  19  86 CALM      30.25S
CAVALIER       FAIR      27  21  80 CALM      30.27R
GRAFTON        FAIR      28  25  86 CALM      30.29R
CANDO          NOT AVBL
FORT TOTTEN      N/A     33  12  42 SE3       29.95S
ROLLA          FAIR      30  21  69 SW8       30.23S WCI  23
RUGBY          NOT AVBL
 ***** THE ABOVE OBSERVATIONS ARE NON NWS ARE NOT QUALITY
        CONTROLLED AND MAY MIS-REPORT RAIN FOR SNOW...
$$

 *****  OTHER OBSERVATIONS SOUTHEAST NORTH DAKOTA *****

CITY           SKY/WX    TMP DP  RH WIND       PRES   REMARKS
COOPERSTOWN    FAIR      28  27  93 N5        30.25S WCI  23
VALLEY CITY    FAIR      27  23  86 N6        30.25F WCI  20
OAKES          NOT AVBL
GWINNER        SUNNY     32  23  69 MISG      30.23F
SHEYENNE NWR     N/A     23  19  84 CALM      29.95S
BUFFALO          N/A     33  16  50 S5          N/A
WYNDMERE         N/A     25  23  93 CALM        N/A
 ***** THE ABOVE OBSERVATIONS ARE NON NWS ARE NOT QUALITY
       CONTROLLED AND MAY MIS-REPORT RAIN FOR SNOW...
$$

  *****  WEATHER ACROSS NORTHERN MINNESOTA  *****

CITY           SKY/WX    TMP DP  RH WIND       PRES   REMARKS
FLAG ISLAND    FAIR      34  25  69 N3        30.25R
WARROAD        FAIR      27  21  80 CALM      30.26R
ROSEAU         FAIR      27  19  74 CALM      30.26R
HALLOCK        FAIR      25  21  86 CALM      30.26S
THF RVR FALLS  FAIR      29  19  66 CALM      30.26R
HALSTAD          N/A     26  23  89 N3          N/A
FOSSTON        FAIR      21  12  68 CALM      30.25S
BAUDETTE       FAIR      24  20  84 CALM      30.23R
WASKISH        FAIR      25  23  93 CALM      30.24R
CROOKSTON      FAIR      28  25  86 CALM      30.28R
$$
  *****  WEATHER ACROSS CENTRAL AND WEST MINNESOTA  *****

CITY           SKY/WX    TMP DP  RH WIND       PRES   REMARKS
BEMIDJI        FAIR      21  18  88 CALM      30.24S
PARK RAPIDS    FAIR      25  18  74 N3        30.21F
WADENA         FAIR      25  19  80 CALM      30.25R
DETROIT LAKES  FAIR      30  28  93 CALM      30.25R
MOORHEAD       FAIR      27  25  93 CALM      30.25F
FERGUS FALLS   FAIR      30  21  69 E6        30.25R WCI  24
ELBOW LAKE     FAIR      31  28  88 E6        30.24S
MORRIS MN      FAIR      28  23  80 NE5       30.23R WCI  23
STAPLES        FAIR      23  21  93 CALM      30.25R
WHEATON        FAIR      28  25  86 CALM      30.27S
$$
  *****  WEATHER ELSEWHERE ACROSS MINNESOTA  *****

CITY           SKY/WX    TMP DP  RH WIND       PRES   REMARKS
DULUTH         FAIR      32  26  78 N6        30.20S
INTRNTL FALLS  FAIR      20  17  88 CALM      30.24S
ELY            FAIR      19  19 100 CALM      30.21F
CLOQUET        FAIR      27  21  80 CALM      30.23R
BRAINERD       FAIR      25  24  96 CALM      30.24R
HIBBING        FAIR      20  19  96 CALM      30.22S
ALEXANDRIA     FAIR      32  21  64 CALM      30.23R
SAINT CLOUD    FAIR      29  26  89 CALM      30.24R
MINNEAPOLIS    MOCLDY    39  26  59 E10G20    30.24R
$$

  *****  WEATHER ACROSS SOUTH DAKOTA  *****

CITY           SKY/WX    TMP DP  RH WIND       PRES   REMARKS
SIOUX FALLS    FAIR      37  25  61 NE12      30.17S
BROOKINGS      FAIR      32  22  66 NE3       30.20R
WATERTOWN      FAIR      24  19  81 N5        30.19F WCI  18
HURON          FAIR      23  20  88 N5        30.19F WCI  17
SISSETON         N/A     24  22  91 N7        30.21F WCI  16
ABERDEEN       FAIR      26  21  81 NW6       30.23F WCI  19
MITCHELL       FAIR      32  24  72 N8        30.18S WCI  25
PIERRE         FAIR      28  21  75 NW7       30.20F WCI  21
MOBRIDGE       FAIR      26  22  84 N6        30.19F WCI  19
RAPID CITY     FAIR      30  23  75 NW9       30.22R WCI  22
$$

  *****  SOME WEATHER IN NEARBY STATES *****

CITY           SKY/WX    TMP DP  RH WIND       PRES   REMARKS
GLASGOW MT     FAIR      34  31  88 CALM      30.19S
GREAT FALLS MT FAIR      33  29  85 S12       30.16S WCI  24
CHEYENNE WY    CLOUDY    26  24  92 NE7       30.09S WCI  18
SCOTTSBLUFF NE CLOUDY    33  27  78 N7        30.16R
OMAHA NE       CLOUDY    43  34  70 N7        30.09R
DES MOINES IA  CLOUDY    45  35  68 NE17      30.07R
DAVENPORT IA   CLOUDY    45  41  86 E15       30.10R
CHICAGO IL     CLOUDY    46  36  68 NE18      30.13R
EAU CLAIRE WI  FAIR      32  26  78 E5        30.25R
LA CROSSE WI   FAIR      38  29  70 NE6       30.24R
$$

  *****  SOME NATIONAL WEATHER *****

CITY           SKY/WX    TMP DP  RH WIND       PRES   REMARKS
LA GUARDIA NY  PTSUNNY   68  64  87 E3        29.97R
RALEIGH NC     MOCLDY    72  69  90 SW8       30.19R
ATLANTA GA     FAIR      69  66  90 E8        30.13R
NEW ORLEANS LA CLOUDY    77  74  90 SE12      29.90S
OKLAHOMA CITY  TSTM      52  51  97 NW32G45   29.65R FOG
ALBUQUERQUE NM CLOUDY    37  32  82 CALM      29.82S
SALT LAKE CITY FAIR      40  25  55 N12       30.09R
LOS ANGELES CA FAIR      67  14  13 E3        29.91R
BOISE ID       FAIR      37  30  75 CALM      30.20R
SEATTLE WA     FAIR      45  40  82 SE9       30.30F
$$

*** WEATHER ACROSS MANITOBA...SASKATCHEWAN AND ONTARIO ***
                ***ONTARIO***

CITY           SKY/WX    TMP DP  RH WIND       PRES   REMARKS
GERALDTON      PTCLDY    25  14  63 NW9       30.16R WCI  15
THUNDER BAY    PTCLDY    23  21  93 W5        30.24R WCI  17
SIOUX LOOKOUT  PTCLDY    14  12  92 NE2       30.25R
TORONTO        MOCLDY    45  32  61 N18G24    30.04R
BIG TROUT LK   CLOUDY    25  21  86 N8        30.23R WCI  16
PICKLE LAKE    MOCLDY    21  12  68 W8        30.22  WCI  12
DRYDEN         CLEAR     23  23 100 NE3       30.25R
KENORA         PTCLDY    32  12  43 NE8       30.24S WCI  25
$$
                *** MANITOBA***

CITY           SKY/WX    TMP DP  RH WIND       PRES   REMARKS
BRANDON        PTCLDY    25  18  74 E7        30.22S WCI  17
DAUPHIN        MOCLDY    25  19  80 W2        30.21S
ISLAND LAKE    MOCLDY    25  18  74 NE3       30.29R
PILOT MOUND      N/A     27  19  74 S6          N/A  WCI  20
THE PAS        PTCLDY    27  16  63 SE5       30.20S WCI  21
THOMPSON       CLOUDY    21  16  79 NE5       30.32R WCI  15
WINNIPEG       PTCLDY    23  19  86 NW3       30.26S
LYNN LAKE      MOCLDY    27  25  93 E6        30.25R WCI  20
CHURCHILL      FLURRIES   7   5  92 W10G17    30.40R WCI  -8
GILLAM         CLOUDY    16  12  86 N5        30.37R WCI   9
$$
                ***SASKATCHEWAN***

CITY           SKY/WX    TMP DP  RH WIND       PRES   REMARKS
ESTEVAN        PTCLDY    32  30  93 W7        30.20R
KINDERSLEY     PTCLDY    25  23  93 S7        30.14S WCI  17
LLOYDMINSTER   CLEAR     28  25  86 W8        30.12R WCI  20
PRINCE ALBERT  MOCLDY    36  34  93 SE3       30.10S
REGINA         PTCLDY    32  30  93 S10       30.15S WCI  24
YORKTON        MOCLDY    39  30  70 S6        30.15R



USA.gov is the U.S. government's official web portal to all federal, state and local government web resources and services.